COSMOS 1275 DEB, 42180

Orbit data source: Space-Track

COSMOS 1275 DEB, 42180 is space debris in LEO originally from a launch on Thu, 04 Jun 1981 UTC launched from the Plesetsk Missile And Space Complex (PKMTR). Debris objects in space refer to the collection of defunct objects orbiting the Earth. Examples of debris include non-operational satellites, rocket bodies, and fragments generated from explosions, collisions, or faulty payload assembly.

Loading next visibility...
Identifier
42180, 1981-053SU
Orbit
LEO
Country
Flag of CISCIS
Related business
Manufacturer
Unknown
Mission
Spacecraft
Bus & Motor
Unknown
Mass
Unknown
Launch date (UTC)
1981-06-04 (45 years ago)
Launch vehicle
Unknown
Launch site
Plesetsk Missile And Space Complex (PKMTR)
Object type
Payload
Rocket body
Debris
Shape & HBR
Unknown shape, 0.1 m
Radar Cross Section
Small (<0.1 m²)

Expand to show TLE details & history
Last TLE update: 2 weeks ago

TLE from 2 weeks ago
0 COSMOS 1275 DEB
1 42180U 81053SU  26161.71009042  .00030044  00000-0  24140-2 0  9995
2 42180  82.8527 320.1002 0004318  89.4626 286.8747 14.99883368627778
Epoch: 2026-06-10T17:02Z
TLE epoch observation values (Epoch: 2026-06-10T17:02:31.812Z)
Latitude
16.14056°
Longitude
167.47164°
Altitude
568.788 km
Speed
7.578 km/s
True Right ascension
21h 28m 40s
True Declination
16° 02' 47"
Sunlit
Object was in daylight at epoch
Visualization orbit readout
Latitude
Unknown
Longitude
Unknown
Altitude
Unknown
Speed
Unknown
Apparent Right ascension
Unknown
Apparent Declination
Unknown
Sunlit
N/A
Visualization observer readout
Local Sidereal Time
21:51:53
Azimuth
Unknown
Elevation
Unknown
Doppler factor
Unknown
Orbital elements
Apogee altitude
567.236 km
Perigee altitude
561.241 km
Semi-major axis
6,942.375 km
Eccentricity
0.00043
Inclination
82.8527°
RAAN
320.1002°
Arg. of periapsis
89.4626°
True anomaly
286.82734°
Mean anomaly
286.8747°
Eccentric anomaly
286.85102°
Mean motion
3.75216 °/min
Orbital period
95.94 mins
BSTAR
0.002414
Loading maneuver chart data...
Computing Atmospheric mass density...

Documentation

Showing up to 5 results
|